Location: Aldenham
(51.6667°N, 0.3500°W)
Time: 19:21:11
(UTC+00:00)

A-11 Canister half - Pass Details

Date: 20 February 2026
Orbit: 1512 x 1687 km, 47.2° (Epoch: 8 March)

Event Time Altitude Azimuth Distance (km) Brightness Sun altitude
Rises 04:20:26 0° 285° (WNW) 4,849 - -26.2°
Reaches altitude 10° 04:25:35 10° 263° (W) 3,820 - -25.4°
Maximum altitude 04:30:01 14° 235° (SW) 3,455 - -24.7°
Drops below altitude 10° 04:34:24 10° 207° (SSW) 3,747 - -24.1°
Exits shadow 04:35:50 - 199° (SSW) 3,967 10.9 -23.9°
Sets 04:39:24 0° 185° (S) 4,693 11.4 -23.3°
